This is the latest recevied weather packets stored in our database for station/object EA4BCR. If no packets are shown the sender has not sent any weather packets the latest 10 day(s).
| Time | Temp. | Humidity | Pressure | Rain* | Wind** | Luminosity | Snow |
|---|---|---|---|---|---|---|---|
| 1787978416 | 11.67° C | 57% | 1022.2 hPa | - | - | - | - |
| 1787977816 | 11.67° C | 56% | 1022.2 hPa | - | - | - | - |
| 1787977216 | 12.22° C | 54% | 1022 hPa | - | - | - | - |
| 1787976616 | 12.22° C | 55% | 1022 hPa | - | - | - | - |
| 1787976016 | 12.22° C | 54% | 1021.7 hPa | - | - | - | - |
| 1787975416 | 12.22° C | 53% | 1021.8 hPa | - | - | - | - |
| 1787974816 | 12.78° C | 53% | 1021.7 hPa | - | - | - | - |
| 1787974216 | 13.33° C | 51% | 1021.4 hPa | - | - | - | - |
| 1787973616 | 13.33° C | 52% | 1021.4 hPa | - | - | - | - |
| 1787973016 | 12.78° C | 52% | 1021.4 hPa | - | - | - | - |
| 1787972416 | 12.78° C | 52% | 1021.3 hPa | - | - | - | - |
| 1787971818 | 12.78° C | 51% | 1021.3 hPa | - | - | - | - |
| 1787971216 | 12.78° C | 51% | 1021.2 hPa | - | - | - | - |
| 1787970616 | 13.33° C | 50% | 1021.2 hPa | - | - | - | - |
| 1787970016 | 13.33° C | 49% | 1021.1 hPa | - | - | - | - |
| 1787969417 | 13.89° C | 49% | 1021 hPa | - | - | - | - |
| 1787968816 | 13.89° C | 47% | 1020.9 hPa | - | - | - | - |
| 1787968216 | 13.89° C | 47% | 1021 hPa | - | - | - | - |
| 1787967616 | 13.33° C | 48% | 1021.1 hPa | - | - | - | - |
| 1787967016 | 13.89° C | 48% | 1021.2 hPa | - | - | - | - |
| 1787966416 | 13.89° C | 47% | 1021.3 hPa | - | - | - | - |
| 1787965816 | 13.33° C | 47% | 1021.4 hPa | - | - | - | - |
| 1787965216 | 13.89° C | 46% | 1021.4 hPa | - | - | - | - |
| 1787964616 | 14.44° C | 44% | 1021 hPa | - | - | - | - |
| 1787964016 | 15° C | 44% | 1020.9 hPa | - | - | - | - |
* Rain since midnight (hover to see other rain measurements)
** Current wind speed in m/s (hover to see current wind gust speed)